Theta_e
321 322 324 325 326 326 326 326 327 329 330 329 329 327 326 325 325 325 325 326 327 328 329 329 330 330 331 329 329 329 329 330 330 330 331 331 331 328 327 331 337 340 343 345 347 345 345 347 347 344 344 342 343 343 341 340 340 340 339 339 339 337 335 335 335 334 333 332 331 330 330 330 330 330 330 330 329 328 327 327 327 327 327 326 326
320 321 322 322 323 325 325 325 326 327 327 328 328 327 326 324 324 324 325 325 325 326 326 327 328 328 330 329 328 328 329 328 328 329 329 330 331 330 324 329 334 340 342 343 343 347 345 345 344 344 343 344 344 341 341 339 339 339 339 338 338 336 335 335 334 333 332 331 330 330 330 329 329 329 328 328 328 327 327 326 326 326 326 325 325
311 314 318 320 321 323 323 325 325 325 325 324 326 325 326 325 324 323 324 324 325 325 324 326 326 326 327 328 328 328 328 328 328 329 329 329 330 329 327 325 330 334 337 340 342 342 343 343 345 345 344 344 341 342 340 340 339 338 338 337 337 336 334 334 333 332 331 330 330 329 329 329 328 328 328 328 327 326 325 326 326 325 325 325 325
306 309 313 317 319 320 322 323 323 325 325 325 325 324 324 324 323 323 322 323 324 323 324 324 324 325 326 327 327 327 326 327 327 328 328 328 329 330 330 329 325 329 332 338 341 341 341 341 341 343 343 344 344 343 341 340 339 338 337 336 336 336 334 332 332 331 330 330 329 328 328 328 327 328 327 326 326 325 324 324 324 324 324 324 324
304 307 312 315 317 317 318 320 323 323 324 324 324 323 322 321 320 320 320 322 322 321 322 323 322 323 324 324 325 326 326 325 326 327 327 327 328 329 330 328 329 323 324 329 336 338 339 341 343 344 344 344 342 341 340 339 338 337 337 336 336 335 334 333 331 330 330 329 328 328 328 328 328 327 327 326 325 324 324 324 323 323 324 324 324
303 307 309 312 314 315 316 318 321 323 324 324 324 322 319 319 319 319 318 320 320 320 320 320 321 322 322 323 323 324 324 324 325 326 327 326 327 328 328 328 329 329 328 323 328 330 336 338 339 339 339 341 341 341 340 339 337 337 336 335 335 335 333 332 332 330 330 330 328 328 328 327 328 326 326 326 325 324 323 323 323 324 324 323 322
304 304 305 308 310 312 314 316 319 320 322 323 322 322 320 319 318 319 319 319 320 319 320 320 320 320 321 321 322 322 322 322 323 323 324 325 324 325 328 327 328 329 328 329 320 325 330 336 338 339 338 338 338 338 338 338 336 337 336 336 335 334 333 332 330 331 331 329 328 328 327 327 327 326 325 325 323 323 324 324 323 323 323 323 323
302 302 303 306 308 311 313 315 316 318 321 322 321 320 318 319 318 319 317 317 318 317 318 319 319 319 319 320 321 320 320 320 320 320 322 323 323 323 325 326 326 327 323 329 328 325 325 331 334 335 337 337 337 337 338 338 337 336 336 335 334 333 332 331 331 331 330 328 327 327 327 326 326 325 325 324 324 324 323 324 323 323 323 323 323
300 302 303 304 306 309 312 314 313 313 316 320 320 320 319 317 316 318 319 317 317 317 316 318 317 318 317 318 318 318 318 319 320 320 320 321 322 322 322 323 322 316 326 327 328 328 324 326 330 331 330 332 336 336 337 337 337 337 336 335 334 333 331 331 331 330 329 328 328 327 326 325 325 325 324 324 323 323 324 323 323 324 324 323 323
299 301 302 303 305 308 309 308 308 308 310 317 320 320 319 318 316 317 318 318 317 316 315 316 317 316 316 316 316 317 318 318 318 315 319 320 321 321 322 321 321 322 324 325 326 326 327 325 325 326 323 327 333 335 335 335 336 336 336 334 333 333 331 330 330 329 329 327 327 327 326 325 325 324 324 323 324 324 324 324 324 323 323 323 323
298 299 299 301 305 305 304 305 307 308 309 311 318 318 317 317 316 316 317 318 318 317 316 315 316 315 315 315 315 315 316 316 316 318 319 318 319 319 320 320 320 320 320 322 324 324 325 325 326 323 324 324 330 332 333 333 333 334 334 335 335 333 332 331 330 329 327 327 327 326 325 326 325 324 323 324 324 324 324 324 324 323 324 323 323
297 298 299 302 302 301 302 304 307 308 308 308 313 317 316 315 316 315 315 314 316 317 316 314 313 314 311 311 309 309 312 312 315 317 318 318 317 317 318 318 319 319 318 319 322 324 324 323 321 324 324 324 325 328 331 330 329 332 334 335 334 333 332 330 328 328 327 326 326 325 324 323 323 324 324 324 324 324 324 324 324 324 323 323 323
296 297 299 301 300 299 300 302 305 308 308 308 310 316 316 316 315 314 314 312 311 313 314 313 310 305 307 307 306 307 307 311 312 313 316 317 317 317 317 317 317 317 318 317 320 322 323 321 321 323 324 324 323 322 325 325 323 330 334 334 335 334 333 331 329 327 326 326 326 326 325 324 323 324 324 324 324 324 323 323 324 324 324 324 323
296 297 299 299 297 297 298 301 304 306 306 307 308 311 314 315 314 312 314 313 311 312 312 312 308 306 304 302 304 306 305 307 310 310 311 314 316 317 316 317 316 316 316 317 317 320 319 320 321 321 323 322 322 323 324 323 324 329 332 333 333 333 332 331 329 328 326 326 325 325 325 324 324 325 325 325 325 324 325 324 325 325 325 325 325
296 296 298 298 297 298 298 300 301 303 303 304 306 307 311 314 314 312 311 313 312 312 312 313 309 309 307 304 301 302 302 304 304 306 308 312 313 315 316 316 316 316 316 316 315 316 318 319 320 320 320 322 321 321 322 318 321 319 325 328 330 332 332 330 329 329 327 326 326 325 325 325 326 326 326 325 325 325 325 326 326 327 326 326 326
295 295 297 297 297 298 299 299 299 302 303 303 304 305 307 312 313 312 313 309 308 309 312 313 312 309 302 304 303 304 298 301 304 302 301 308 313 314 315 316 316 316 316 315 314 314 316 318 319 319 319 320 321 321 321 322 315 312 315 319 322 329 330 330 330 329 327 326 325 325 325 326 326 326 325 325 326 326 326 327 326 327 327 327 326
294 294 295 296 297 298 298 298 298 301 302 303 303 305 307 310 314 311 312 310 308 309 310 311 311 313 309 302 299 299 301 303 304 299 300 306 307 313 312 315 315 315 316 315 314 315 316 317 318 318 319 319 319 319 320 320 317 316 316 312 319 323 325 329 329 329 329 328 327 325 325 325 325 325 326 326 327 327 327 328 327 327 327 327 327
293 294 295 296 297 297 297 298 298 300 301 302 303 305 306 308 312 312 311 312 310 309 308 310 312 311 311 311 306 301 301 303 304 298 297 298 300 302 312 314 314 314 316 314 313 313 314 317 317 315 316 317 317 317 318 318 315 318 318 319 321 324 324 326 329 329 329 329 329 327 326 326 326 326 326 327 327 328 328 327 327 327 327 327 327
292 293 294 296 296 295 296 297 298 300 301 301 301 302 304 305 308 313 312 311 311 308 308 309 310 310 310 310 301 303 307 305 303 302 297 299 298 300 305 313 313 313 314 314 314 314 314 315 315 316 316 315 316 317 317 317 313 314 311 312 318 321 322 321 323 326 328 329 329 329 328 327 327 327 327 327 328 327 328 328 328 327 327 327 327
292 292 294 295 295 295 296 297 299 300 299 299 299 302 304 306 307 310 313 312 311 310 309 310 308 308 309 307 301 305 308 309 310 305 304 299 298 297 298 301 312 313 313 313 313 314 314 314 315 314 314 314 315 316 316 316 316 316 312 313 318 321 322 321 321 321 324 326 329 329 329 329 328 328 328 328 328 329 328 328 327 328 327 328 327
289 291 292 293 294 294 295 296 298 298 298 298 299 300 302 303 303 303 309 311 312 312 311 310 310 309 308 305 301 303 306 306 304 301 305 301 301 301 302 300 306 312 313 313 313 314 314 314 314 314 312 313 314 315 315 315 316 316 312 314 318 320 320 320 320 319 320 322 327 328 330 330 329 329 329 328 328 328 328 328 328 328 327 328 328
287 289 291 293 294 294 295 296 297 298 297 298 299 299 302 302 303 303 305 310 312 311 311 311 311 311 310 306 302 300 303 300 298 301 300 306 302 301 303 302 304 307 308 311 312 313 314 314 312 313 313 314 314 314 315 315 315 316 314 312 316 317 319 321 320 320 321 322 322 323 327 328 329 330 330 329 329 329 328 328 328 328 328 328 328
285 287 290 293 294 294 294 295 297 297 297 298 298 299 300 301 303 303 302 303 311 311 309 311 311 310 310 308 304 303 303 302 302 302 303 296 298 303 304 306 307 302 303 309 311 312 313 313 313 312 313 313 313 314 314 315 310 312 310 312 315 316 320 323 321 320 320 321 321 321 324 324 326 327 329 329 328 329 328 328 328 328 327 327 327
284 285 286 290 293 293 294 295 296 297 297 298 298 298 299 300 302 302 302 302 304 309 310 310 310 310 310 309 306 305 305 305 305 305 304 303 304 303 303 303 301 295 295 303 309 311 311 312 312 312 313 313 313 313 314 315 314 307 309 310 314 316 320 322 320 319 320 320 319 320 323 323 324 324 326 328 328 329 329 328 328 328 328 327 327
281 282 283 285 289 292 293 294 295 296 296 296 297 297 298 299 300 301 301 301 301 305 309 309 310 309 309 309 308 305 305 306 306 305 306 305 304 302 303 305 302 296 293 297 295 299 310 312 311 311 312 311 313 313 314 314 314 307 308 308 312 314 316 318 318 320 319 318 318 319 322 323 322 324 327 326 327 328 328 327 327 327 327 327 327
279 280 282 284 287 290 292 293 295 295 295 295 296 297 297 297 298 299 299 300 301 302 308 309 310 310 310 309 307 305 304 304 305 305 304 303 302 302 301 296 301 298 292 295 294 300 297 304 309 311 309 309 312 313 313 314 312 304 307 311 312 312 315 318 320 319 318 318 317 317 316 318 322 323 324 326 326 327 327 327 327 327 328 328 327
279 280 282 283 285 288 291 293 294 294 294 295 295 296 297 297 297 298 299 300 301 301 305 309 309 309 309 309 307 306 304 304 305 305 306 305 304 303 302 296 292 292 295 293 298 305 302 295 300 301 305 307 307 309 311 311 308 304 304 315 315 309 313 317 319 318 316 316 316 316 316 316 319 322 322 322 325 325 326 327 327 327 327 326 325
279 280 281 282 284 287 291 292 293 293 293 294 294 293 294 294 295 297 298 300 300 301 303 309 309 309 309 309 307 305 304 304 305 305 306 306 305 305 304 302 297 293 292 293 296 301 300 299 296 297 299 303 306 306 307 308 310 303 304 315 314 312 311 314 316 317 317 316 314 314 314 315 316 317 319 319 319 319 320 321 322 322 322 322 322
278 280 280 282 283 286 288 291 291 292 292 291 292 292 293 293 294 295 296 299 299 300 302 307 309 310 309 308 307 306 304 304 305 305 305 305 306 306 306 305 303 298 295 294 295 300 297 303 301 295 295 296 302 303 308 309 306 305 312 312 312 312 309 312 314 315 316 315 313 314 312 313 314 315 315 315 315 316 318 319 319 319 321 321 321
278 279 280 281 283 285 287 289 290 289 290 290 290 291 292 293 293 294 296 299 299 300 301 304 309 310 309 308 308 306 304 304 305 305 305 305 305 306 307 307 306 302 300 298 296 299 299 296 298 294 290 293 296 299 302 304 301 305 309 309 309 307 305 308 311 312 312 312 313 314 312 311 312 313 313 313 315 316 317 317 317 318 320 320 322
278 279 279 279 280 283 286 288 289 289 289 289 290 290 291 291 292 293 295 298 299 299 302 304 308 309 308 307 307 307 305 304 304 304 304 305 305 306 306 306 306 305 303 302 296 294 298 299 296 295 294 291 294 296 299 298 299 304 305 305 307 303 301 304 306 309 309 310 311 311 311 310 311 312 312 312 314 315 317 316 316 317 319 320 321
277 279 278 278 279 281 284 288 289 289 288 289 289 289 290 290 291 292 294 296 297 299 300 303 307 308 308 307 306 306 305 305 304 304 304 304 305 305 305 305 305 305 305 303 300 296 296 301 297 295 296 294 293 295 294 295 297 297 300 301 303 298 301 303 303 305 306 308 309 309 309 310 311 312 312 312 314 315 315 315 315 317 318 318 319
277 277 277 277 278 280 282 285 287 288 288 288 288 289 289 289 290 291 293 294 295 297 300 301 305 308 307 307 306 306 306 305 304 304 304 304 305 305 305 305 304 303 304 303 299 293 291 292 294 295 294 295 293 294 293 293 293 294 295 296 298 298 298 299 301 300 303 305 307 308 309 309 310 311 311 311 312 314 314 316 316 315 316 317 318
275 276 276 277 278 279 279 281 284 287 289 289 288 288 288 288 289 291 291 292 293 295 299 301 304 307 307 307 306 305 305 305 304 304 304 304 304 303 304 304 301 302 304 302 298 296 293 289 289 292 293 297 295 292 295 292 292 291 294 294 293 295 297 296 297 300 302 304 306 307 308 308 310 311 311 311 312 313 314 315 313 312 313 314 313
275 275 276 277 277 278 278 280 282 286 288 288 287 287 287 288 288 288 290 291 292 293 296 299 303 306 306 305 305 305 305 305 304 303 303 303 304 303 303 303 302 301 299 300 298 296 293 290 290 291 292 294 296 292 292 293 292 294 294 293 294 292 292 294 296 298 301 304 306 307 308 308 309 310 310 311 311 311 312 312 311 311 311 311 311
274 275 276 276 277 277 278 279 281 285 288 288 288 287 287 287 287 288 288 289 290 292 294 297 302 305 305 305 305 304 304 304 303 303 303 304 303 303 302 301 301 299 299 298 300 298 295 290 288 291 291 293 290 291 292 291 292 293 294 293 291 292 291 292 294 297 301 305 306 306 307 308 309 310 309 310 310 310 310 310 309 310 309 308 308
273 273 274 276 276 277 277 278 279 282 287 288 288 287 287 287 287 287 288 288 289 290 292 295 299 305 305 305 304 304 303 303 301 302 303 302 304 303 302 301 300 300 299 298 297 297 295 293 289 289 291 290 290 291 291 292 291 290 290 291 292 293 292 291 292 297 299 304 304 305 306 307 308 309 309 309 309 309 309 309 309 308 307 307 306
272 273 274 275 276 276 277 277 277 278 281 286 288 287 287 287 287 287 287 288 288 290 291 294 298 304 306 305 304 303 303 302 301 302 302 302 303 302 301 300 300 299 298 296 296 296 296 294 291 288 290 290 290 290 292 293 293 291 290 289 289 290 293 294 292 294 297 302 302 304 303 305 305 307 308 308 309 308 308 308 307 306 304 304 304
272 273 273 274 275 275 276 276 276 277 278 281 285 287 287 287 287 287 287 287 288 289 291 293 297 302 306 306 304 303 303 303 302 302 302 303 303 302 301 301 299 299 297 295 295 294 294 292 291 291 290 290 292 290 290 292 293 294 292 290 290 289 291 294 294 293 295 297 298 302 303 303 303 306 306 307 307 307 307 307 306 305 303 302 303
270 270 271 272 273 274 275 275 276 277 278 279 282 285 286 286 286 286 287 287 287 288 290 293 295 300 305 305 304 303 304 304 303 303 303 303 303 301 302 301 300 298 295 294 293 293 292 291 291 290 291 290 289 289 290 290 291 291 292 293 291 290 291 291 294 295 293 294 295 297 299 300 302 304 305 305 305 306 305 304 303 302 300 302 303
270 271 271 272 272 273 274 275 276 277 278 279 281 284 286 286 286 287 287 287 287 287 288 290 293 297 303 305 304 303 301 299 298 300 301 301 303 299 300 300 297 296 294 293 293 292 292 291 290 291 290 290 290 289 289 291 292 292 291 290 291 292 293 292 291 292 293 295 292 292 292 295 296 297 299 301 303 303 302 302 301 298 299 302 303
269 270 271 271 272 273 274 275 276 277 277 279 281 283 285 285 286 287 287 287 287 287 287 288 291 295 301 304 302 298 296 296 296 297 298 299 299 301 301 298 296 295 294 293 293 293 292 291 290 289 289 290 290 290 290 291 292 291 291 292 290 290 290 289 289 288 289 293 293 293 292 291 296 293 293 298 297 298 299 300 300 299 300 302 303
268 269 270 271 272 273 274 274 275 276 277 278 281 283 285 287 287 287 287 287 287 287 287 288 290 293 299 303 303 297 295 295 296 296 298 298 298 298 298 298 297 296 294 293 292 292 292 291 290 290 291 290 290 291 291 291 291 292 292 292 290 290 290 290 289 288 288 293 293 293 291 289 292 294 293 295 295 294 296 297 299 299 300 302 302
268 269 269 269 270 271 272 273 275 276 277 279 282 283 284 286 288 287 288 288 287 287 287 288 289 292 297 302 302 300 299 299 299 298 297 297 297 297 297 297 296 297 297 295 293 291 292 291 290 290 291 290 289 290 291 291 291 291 292 291 290 291 290 291 291 291 291 291 294 293 292 288 289 293 292 292 292 294 295 297 300 299 301 302 302
268 267 268 269 270 272 273 274 275 276 277 280 283 284 285 286 287 288 288 288 287 287 287 287 289 291 295 300 301 301 301 294 295 299 299 297 295 296 296 296 295 296 297 297 296 294 293 292 291 290 291 291 289 290 291 292 292 290 290 290 290 291 291 292 292 293 291 291 294 293 292 289 288 291 292 290 289 289 292 297 299 300 301 301 301
266 267 268 268 270 271 272 274 275 277 278 281 283 284 285 286 288 288 288 288 288 287 287 287 289 290 294 299 300 299 299 297 298 299 299 298 296 294 294 296 296 295 296 296 295 294 293 293 292 291 292 292 291 292 291 292 291 290 290 290 290 290 290 292 293 294 292 293 294 293 292 289 287 289 290 288 287 288 289 295 299 299 301 301 300
266 266 267 268 269 270 271 274 276 276 277 281 282 283 284 286 288 289 289 289 288 288 288 288 289 291 293 299 300 300 299 297 298 298 298 296 293 293 293 293 294 295 297 296 296 296 295 295 293 294 293 293 294 293 292 292 292 292 292 292 291 291 290 287 287 287 289 291 293 294 292 289 286 288 289 287 286 287 287 294 298 299 300 300 300
267 268 268 270 270 270 271 272 273 275 277 281 282 283 284 286 289 288 288 287 287 287 287 288 289 291 294 298 300 300 299 298 296 296 296 295 293 292 292 292 293 295 296 296 296 296 297 297 296 295 294 294 294 292 292 292 291 289 289 288 288 288 288 289 286 285 288 289 290 293 291 289 287 289 288 285 285 285 284 286 296 298 299 299 299
266 267 268 269 271 272 273 274 275 276 276 279 282 283 284 286 287 287 287 286 286 287 287 288 289 291 294 298 300 300 299 298 296 297 297 295 292 292 292 291 292 293 294 296 295 296 296 296 296 296 296 296 296 295 295 294 291 290 290 289 288 288 288 285 282 285 287 288 287 288 287 288 286 287 282 281 285 286 284 285 289 297 298 299 299
266 267 268 268 270 271 271 272 276 277 278 281 283 284 285 286 286 285 286 286 286 286 287 288 290 292 295 294 296 299 298 298 296 297 297 294 293 292 291 291 290 291 292 293 293 294 294 295 295 295 295 295 295 295 295 294 294 292 291 289 288 289 288 287 284 285 286 287 288 285 285 284 286 282 281 279 283 281 283 284 286 290 296 297 298
267 268 268 268 269 271 272 273 276 278 279 280 283 284 285 287 286 286 286 286 286 286 287 287 289 292 295 294 294 297 298 296 296 297 296 294 293 292 292 291 290 290 291 291 290 290 290 289 290 291 290 292 292 292 291 293 292 291 292 291 289 289 288 287 285 284 283 284 287 286 286 281 285 283 284 282 281 278 277 283 284 285 289 291 294
Wind_Speed
11 11 10 10 10 10 10 10 9 9 8 10 10 10 10 10 10 10 9 9 9 9 9 10 10 10 11 11 11 12 12 11 12 12 12 10 10 16 23 23 21 22 23 28 28 27 30 30 31 34 31 28 31 31 32 33 31 30 31 30 29 29 29 27 25 26 26 25 25 24 23 23 23 23 23 22 22 21 20 20 19 19 19 18 18
12 12 12 13 11 11 11 10 10 8 8 10 9 10 10 10 10 10 10 10 9 10 9 10 11 11 11 12 12 12 12 12 12 10 10 10 11 14 23 22 22 23 22 24 27 26 27 29 31 32 32 34 32 32 32 30 29 30 30 31 29 28 28 27 27 26 26 26 25 23 23 23 24 23 22 22 22 22 21 20 20 20 19 18 18
12 13 12 12 12 12 11 11 11 10 9 9 9 9 10 11 11 11 10 10 10 9 9 10 10 11 12 12 12 11 11 12 12 12 11 9 9 8 14 21 22 21 20 20 22 27 26 29 34 33 34 33 33 33 33 31 30 31 31 30 29 28 27 28 28 27 26 25 25 25 25 25 24 24 23 23 22 21 21 21 20 20 20 20 19
12 12 12 13 12 13 13 12 11 10 9 10 10 10 11 11 12 11 10 9 8 8 10 9 9 11 11 13 12 11 11 11 12 13 12 11 9 10 11 14 19 19 19 20 20 25 27 29 33 34 34 35 34 32 32 30 31 31 30 32 31 29 28 28 27 27 27 26 27 26 25 25 24 24 24 23 22 21 21 20 20 20 20 20 20
11 12 12 12 12 13 14 14 13 11 11 12 13 12 11 11 10 8 8 9 9 9 9 10 10 10 12 12 10 13 12 12 12 12 13 11 10 10 10 10 12 15 16 18 21 20 27 29 30 31 32 31 34 35 33 32 31 31 31 31 31 30 30 28 27 28 28 27 27 26 25 25 25 24 24 23 22 21 21 20 21 21 21 20 20
10 11 11 11 12 12 13 14 13 13 12 12 13 11 10 11 11 10 10 10 10 10 10 11 10 9 10 12 11 11 11 12 12 13 13 11 10 9 9 9 11 11 12 16 21 20 22 26 30 30 32 31 33 33 34 33 32 31 31 30 31 31 30 30 28 28 28 28 27 26 25 26 25 24 24 23 22 22 22 23 23 22 22 21 21
10 10 11 11 11 12 13 12 13 13 13 11 11 12 12 13 10 11 10 10 10 10 11 11 11 11 11 10 12 11 11 11 10 11 11 10 9 7 10 10 9 10 11 10 15 21 21 27 29 30 31 31 32 33 32 30 32 32 31 31 31 30 30 29 29 29 29 28 27 27 27 26 25 25 24 23 23 23 22 23 22 22 22 22 20
10 9 10 10 10 12 12 12 14 13 14 13 11 11 9 12 12 13 11 11 11 10 10 11 11 11 9 10 10 11 12 11 10 10 9 9 9 9 10 11 10 10 11 10 9 15 23 24 27 27 24 28 30 30 32 33 32 33 32 31 30 30 30 29 30 30 29 28 28 27 26 26 25 25 24 24 24 23 23 22 22 22 22 21 20
10 10 9 10 10 11 11 13 12 13 15 15 13 12 12 10 10 12 13 12 12 12 11 11 11 11 10 9 9 9 11 11 11 11 10 10 10 10 9 9 10 9 10 9 11 10 20 24 27 28 27 27 30 32 33 32 34 33 32 31 31 31 30 30 30 29 29 28 28 27 26 26 26 25 24 24 24 25 23 22 23 22 21 22 21
10 10 9 9 9 10 11 13 13 12 14 15 13 12 13 13 13 12 13 13 12 12 12 10 10 10 10 10 9 8 8 9 9 7 8 10 11 10 9 7 8 8 8 8 9 9 12 20 25 30 28 27 28 30 32 34 36 35 34 34 35 32 31 30 31 29 29 28 28 27 26 25 26 25 25 25 24 24 22 23 23 23 22 22 21
10 10 9 8 8 9 10 13 12 12 12 15 15 14 13 14 15 13 12 14 14 15 14 12 12 12 11 11 10 8 7 7 7 8 8 7 7 8 8 9 9 8 8 8 8 10 10 11 10 7 17 28 27 25 28 29 32 34 34 34 34 34 32 32 31 29 29 28 27 27 27 26 25 25 25 24 24 24 23 23 22 22 21 21 20
11 11 9 8 7 7 10 12 12 11 12 14 15 13 15 16 17 17 15 11 11 12 11 11 9 10 9 5 3 5 8 7 7 9 9 10 8 7 9 8 8 9 8 7 8 10 10 7 9 12 10 16 25 25 25 24 24 30 32 33 33 33 33 32 34 30 30 28 28 27 28 28 26 26 25 24 24 24 23 23 23 23 23 22 21
12 10 9 8 6 6 8 10 11 12 12 13 16 17 13 13 15 16 18 14 10 10 12 12 11 6 6 7 6 4 3 7 6 6 8 8 9 9 9 8 8 8 7 7 9 10 11 9 8 10 12 10 14 24 26 25 23 27 32 33 33 34 34 32 31 32 28 29 29 27 27 26 28 27 27 26 25 25 25 24 23 23 22 21 20
12 10 8 7 7 6 7 9 10 11 12 14 14 15 12 14 14 11 12 18 12 15 14 14 10 13 12 6 5 4 4 3 4 4 4 6 8 9 8 12 10 8 7 7 6 11 8 10 8 10 11 10 7 10 15 17 22 29 32 33 32 33 33 32 31 32 29 29 29 27 26 27 27 27 28 26 26 25 24 25 24 22 21 20 20
12 10 9 7 7 6 7 7 9 10 12 13 12 14 15 15 15 14 11 9 11 14 18 19 14 9 8 12 8 5 1 1 2 2 3 5 5 8 11 9 11 11 7 8 4 9 9 8 10 10 9 12 9 7 10 14 16 24 25 27 30 32 32 31 30 31 29 28 28 28 26 26 27 28 27 25 26 25 25 24 22 22 21 20 20
11 9 9 9 7 7 7 6 8 8 10 13 12 13 15 15 15 17 20 14 7 11 16 16 14 17 11 11 10 12 9 7 6 1 2 2 5 6 6 10 11 10 9 9 6 7 8 9 10 10 10 10 12 10 9 10 16 20 24 24 26 29 30 30 30 31 30 29 29 27 27 28 27 27 28 27 26 25 24 23 23 21 21 21 20
12 13 12 11 8 7 7 7 7 7 9 11 12 11 14 15 17 17 18 18 15 12 12 12 15 18 18 9 5 6 14 14 10 1 1 3 4 6 6 9 11 12 11 10 9 8 10 10 10 9 10 12 11 10 10 11 12 14 16 20 24 25 26 29 30 30 29 30 29 30 30 30 29 29 27 26 25 25 24 23 21 20 21 21 20
12 12 11 9 9 8 7 7 7 6 7 10 12 11 12 14 16 13 13 12 16 14 13 12 14 14 11 18 14 11 15 10 14 7 1 2 1 2 8 10 8 12 12 13 12 9 9 12 12 9 10 11 11 10 9 10 11 11 11 16 24 24 25 27 30 31 31 31 30 30 29 29 28 27 27 25 25 25 24 22 21 21 20 20 19
14 13 12 11 9 7 7 7 7 7 6 8 11 12 11 13 13 13 16 15 11 15 18 16 11 11 10 9 3 6 12 18 15 10 10 2 0 3 5 9 10 10 14 14 15 12 10 11 12 13 12 12 11 11 10 11 13 13 17 21 24 23 23 23 26 28 28 29 29 31 30 29 28 28 27 27 26 26 23 22 21 21 20 19 19
16 12 10 8 8 8 7 7 6 7 6 7 10 11 10 10 11 18 19 18 21 17 19 17 18 15 14 11 5 7 16 15 16 22 20 17 8 1 2 3 10 10 10 13 15 15 14 12 13 11 10 11 10 10 11 12 11 11 12 22 22 23 23 22 23 24 25 27 29 29 29 28 28 27 27 26 25 24 23 23 23 21 21 19 19
18 15 14 13 11 9 8 7 6 6 6 6 9 12 12 11 11 14 16 13 14 19 18 18 19 19 16 9 7 8 13 10 9 5 12 14 13 16 12 2 5 9 10 11 11 13 14 13 12 13 12 12 13 12 12 11 11 11 15 23 23 22 20 20 22 23 22 24 26 29 29 28 28 27 26 26 25 24 24 23 22 21 20 19 18
17 18 17 15 12 9 7 7 6 6 6 7 8 12 12 11 10 10 13 15 11 11 16 18 18 17 19 16 12 10 12 7 5 10 6 16 18 13 15 17 16 10 10 12 12 12 13 13 12 12 11 12 11 13 13 12 11 11 16 23 23 24 21 21 22 22 22 22 22 24 27 28 27 26 25 25 24 24 23 22 21 20 20 19 18
15 15 17 15 11 8 8 8 7 6 6 6 6 8 10 11 10 10 13 15 14 14 13 14 16 16 18 15 16 18 19 18 17 14 14 7 6 14 13 13 16 12 8 10 12 10 11 13 13 12 12 12 11 11 12 12 15 15 22 22 22 23 22 23 22 22 22 22 23 22 23 22 24 25 26 25 25 24 23 21 20 20 20 20 20
14 15 15 16 13 10 8 7 7 6 6 6 5 6 8 9 9 8 9 12 16 15 15 14 16 13 18 16 16 16 16 18 16 17 16 15 16 14 13 8 6 3 2 7 8 11 10 12 13 13 12 11 11 12 12 12 13 22 20 22 22 23 23 22 22 22 22 21 21 21 20 21 21 22 24 25 24 23 22 22 21 21 21 22 22
15 16 17 19 15 13 8 7 7 6 6 5 6 7 7 8 9 10 9 11 14 17 14 16 16 15 17 16 15 13 13 12 14 15 12 11 15 16 10 14 15 8 2 3 4 4 11 13 12 12 14 12 12 12 12 12 12 19 21 19 24 22 22 21 21 21 20 20 19 19 19 19 18 17 18 20 22 22 22 21 21 22 23 22 22
17 17 16 18 16 15 11 8 8 7 6 6 6 7 6 7 8 9 11 10 11 16 18 19 18 17 14 14 13 13 11 10 13 12 12 13 12 16 14 4 8 10 4 5 4 6 2 5 10 11 11 12 12 12 12 12 13 20 21 16 19 22 22 21 21 20 20 20 18 18 17 15 15 15 17 20 20 21 22 22 22 22 23 23 21
17 16 17 18 18 17 16 11 9 8 6 6 6 6 7 7 7 9 9 9 11 12 19 19 19 20 15 14 15 14 11 11 13 14 14 16 17 16 16 13 5 3 7 1 7 14 10 1 3 5 10 11 10 11 12 11 14 21 20 16 14 22 21 22 21 20 19 18 18 18 18 16 16 15 17 18 19 20 21 22 23 24 22 22 20
16 15 17 16 16 18 16 12 9 8 6 5 5 6 7 6 6 8 11 9 10 13 15 17 19 21 18 14 12 13 11 11 14 15 13 13 14 16 18 20 18 9 2 5 7 8 9 9 0 4 9 12 11 11 13 15 13 20 20 12 12 15 21 21 20 20 20 19 17 17 16 17 17 17 17 19 18 20 20 18 17 18 17 17 16
13 13 17 14 15 15 17 15 11 9 7 6 6 6 7 6 5 8 11 9 10 11 12 16 17 19 16 18 15 12 11 11 12 13 12 12 14 16 18 20 20 19 14 12 10 11 8 10 13 4 3 6 10 9 12 11 15 17 13 12 12 11 18 21 19 19 19 18 16 17 16 16 17 17 16 16 16 15 16 16 16 15 16 15 16
14 13 13 16 14 16 15 15 12 9 8 6 6 6 6 6 5 6 9 10 11 9 10 14 18 16 19 15 15 13 10 12 14 14 14 14 14 15 16 16 18 20 17 18 12 7 10 3 2 7 3 6 7 8 8 9 15 17 13 12 12 11 18 20 18 18 17 17 17 17 17 15 15 15 16 16 16 15 17 17 16 15 16 15 17
15 12 13 13 13 15 15 15 13 11 9 7 6 6 6 6 5 6 7 9 10 10 11 13 16 17 19 18 16 15 12 13 14 14 14 14 15 15 14 13 15 19 19 17 14 4 6 12 3 3 10 4 6 7 7 8 13 15 12 11 12 16 19 17 20 18 17 18 17 17 17 16 15 15 16 16 16 14 17 17 17 17 17 17 17
14 13 12 12 14 14 15 14 13 11 9 8 6 6 6 6 5 5 6 8 11 11 11 11 13 17 20 20 18 15 14 13 13 14 14 14 14 14 14 14 14 13 16 16 18 15 5 9 8 6 11 12 7 10 9 6 9 13 10 10 12 17 13 11 16 17 17 16 15 14 15 15 15 15 15 16 17 14 16 17 18 18 17 17 17
13 16 13 15 13 14 15 15 14 13 12 10 6 6 6 6 5 4 5 8 11 11 10 12 14 16 17 20 20 17 16 15 14 14 14 14 14 14 13 13 13 11 13 15 16 10 4 4 6 10 7 13 9 9 11 9 8 6 7 8 10 10 10 9 9 14 16 16 15 14 14 14 15 15 16 16 16 15 17 19 19 20 19 18 18
13 14 16 13 12 13 12 14 14 15 13 12 8 5 6 6 6 3 5 7 10 12 11 12 13 15 17 19 19 17 17 18 16 15 15 15 15 15 14 13 13 13 12 13 14 18 12 3 4 4 9 11 11 6 14 12 9 7 8 6 5 10 10 8 8 8 13 14 14 14 14 15 15 16 17 17 17 17 19 20 20 21 20 19 19
13 14 14 14 14 12 13 12 14 15 14 11 9 6 6 6 6 5 4 6 9 11 12 12 13 16 18 20 20 18 16 17 17 16 15 16 16 17 17 14 14 12 9 11 15 15 18 9 6 10 11 10 13 11 8 10 10 10 10 8 7 4 5 9 9 8 12 14 15 15 15 16 16 17 17 18 19 19 20 20 21 21 21 21 21
13 13 12 14 13 14 14 12 13 14 13 10 10 7 7 6 6 6 6 7 8 11 12 13 13 16 16 18 19 19 18 18 18 16 16 16 16 16 17 14 14 13 11 11 15 16 14 15 6 11 9 11 4 6 7 7 10 8 9 7 4 6 6 5 7 8 10 15 15 16 16 17 17 18 19 20 20 20 21 21 21 21 21 21 20
14 15 13 13 13 13 12 13 14 14 13 11 11 9 7 6 6 6 7 8 9 11 12 13 14 17 16 18 18 19 19 18 17 17 16 19 17 16 17 14 14 13 11 12 11 12 16 18 11 2 7 4 4 8 10 12 7 5 5 6 7 8 6 4 4 6 10 15 15 16 16 17 19 20 20 21 21 21 21 22 21 21 20 20 20
16 14 14 12 9 12 12 13 13 15 16 14 12 12 10 7 6 6 7 8 9 10 12 12 14 15 19 18 19 19 19 19 19 18 18 21 18 17 18 15 13 13 13 11 12 13 14 16 17 9 6 10 8 7 10 10 13 9 6 5 4 4 7 6 3 4 5 7 7 9 12 15 19 21 21 22 22 22 22 22 21 21 20 20 20
16 15 14 14 16 13 15 13 13 13 15 16 14 12 10 8 7 6 7 8 9 10 11 12 13 14 17 19 19 21 21 21 20 20 19 19 17 19 18 19 16 15 14 13 13 14 13 13 13 17 12 5 12 12 5 7 9 12 14 7 5 2 3 8 7 3 5 6 5 11 12 13 15 15 20 22 23 23 22 22 21 22 21 21 20
18 18 18 16 14 15 14 13 12 12 14 13 15 14 11 7 7 7 7 8 9 10 12 12 12 13 15 16 18 20 22 20 20 20 20 19 16 17 16 16 16 16 14 13 13 13 13 13 13 13 13 12 4 4 6 7 8 3 8 13 14 7 5 3 5 11 5 7 7 6 6 8 12 15 19 20 22 22 22 21 22 22 22 21 21
16 17 17 17 15 16 12 14 13 12 12 15 13 12 8 8 7 8 8 9 9 9 11 13 12 13 14 15 17 19 21 22 25 22 22 20 17 16 16 17 17 17 15 14 14 14 13 14 11 11 12 13 13 13 13 14 17 16 8 4 8 11 11 9 3 2 7 10 6 6 6 8 9 8 9 9 12 18 19 20 18 23 23 22 22
18 17 18 18 18 18 18 15 12 11 11 11 15 25 22 13 10 9 9 9 8 8 10 12 12 13 14 16 18 26 25 25 24 25 25 24 23 21 18 17 19 17 17 16 15 15 16 15 16 15 16 16 16 18 18 14 8 9 11 12 11 7 7 4 3 0 2 9 10 9 6 4 9 7 7 10 8 12 11 12 12 15 20 23 22
19 18 17 18 17 16 16 14 14 12 11 11 22 24 25 27 17 12 10 10 9 8 9 10 12 13 13 15 17 22 23 22 21 26 25 26 25 26 27 26 24 23 19 19 16 16 17 16 15 16 17 17 15 15 15 13 12 16 15 11 11 12 12 13 10 1 2 7 9 9 7 4 7 11 9 10 10 9 10 12 17 20 22 22 22
17 16 17 18 18 18 16 15 15 13 12 18 25 26 26 28 23 13 10 10 10 9 9 10 11 12 13 15 14 15 16 20 20 21 24 26 25 26 28 28 28 30 30 25 21 16 17 17 16 17 16 17 16 13 14 15 14 12 11 12 14 16 14 13 12 13 8 9 11 11 10 4 3 8 10 9 9 10 10 13 21 22 23 23 22
16 17 17 17 17 16 17 18 16 14 13 20 25 26 25 26 27 21 11 10 10 9 9 10 11 12 13 13 14 15 16 25 20 18 19 19 23 26 26 27 27 29 28 29 29 25 20 20 20 17 17 16 16 15 16 18 15 15 12 10 10 11 13 15 12 9 10 12 11 10 11 7 6 9 11 8 7 6 8 13 21 22 22 23 22
16 17 16 17 17 17 17 17 15 13 12 16 23 25 25 26 27 23 12 12 11 10 10 11 11 12 14 13 13 15 15 18 17 19 18 18 16 16 16 16 17 22 25 27 26 24 21 17 17 18 14 17 18 17 14 16 18 18 17 16 13 11 11 14 12 13 11 13 16 13 10 10 6 8 10 7 5 5 6 10 19 21 22 22 21
15 15 15 15 15 15 16 17 15 15 14 22 24 26 26 27 27 22 12 11 10 10 11 11 12 13 14 14 15 16 16 17 16 20 19 18 17 16 16 16 16 17 17 19 19 18 18 16 18 19 16 15 16 17 16 15 20 19 19 20 20 16 8 6 7 4 8 11 10 12 14 8 4 7 7 6 5 5 5 8 17 19 22 21 22
13 14 14 13 14 14 15 16 17 15 13 22 24 25 26 26 27 14 11 11 11 10 11 12 12 12 13 13 14 16 17 18 21 26 22 18 18 20 19 17 14 14 15 17 22 21 19 17 17 17 18 19 16 18 18 17 11 9 9 10 9 9 12 10 9 6 9 8 7 11 8 11 10 12 8 4 5 6 5 6 11 17 20 21 21
14 14 14 14 13 13 15 15 16 15 13 19 24 25 25 26 21 11 10 9 10 11 11 12 12 12 12 13 13 15 18 18 23 27 26 24 19 21 19 17 15 15 13 12 18 22 22 22 22 24 26 27 25 25 26 25 18 16 14 14 13 12 11 11 6 8 10 10 6 5 6 10 9 8 6 4 7 7 7 6 5 14 18 19 21
13 14 12 13 13 13 16 17 17 15 14 15 22 23 25 26 21 13 10 10 11 11 11 11 11 12 13 18 17 16 18 19 26 29 29 25 20 21 20 19 16 15 13 11 10 11 17 19 22 22 22 23 24 26 28 27 27 23 21 20 17 14 14 13 13 10 8 9 10 6 8 7 9 5 6 3 3 0 4 5 6 7 15 15 18
13 12 12 12 13 12 13 16 22 20 13 15 23 25 26 25 20 12 12 10 11 11 9 11 11 11 11 13 20 18 18 21 29 29 31 26 20 21 21 20 19 19 17 15 15 13 10 8 7 9 10 14 14 15 18 27 27 24 20 20 18 18 17 13 11 10 8 8 8 9 10 6 12 7 10 7 5 3 3 6 6 6 8 9 11
Wind_Direction
305 303 302 295 289 277 267 260 256 252 233 219 214 217 216 213 213 213 208 207 210 210 207 204 202 203 203 204 202 198 194 193 196 195 195 190 190 191 190 190 194 196 197 195 190 185 188 184 184 173 170 172 171 165 159 155 152 151 152 152 153 153 150 145 142 144 144 144 145 147 145 147 145 142 142 141 139 136 137 136 134 132 130 131 122
319 315 312 307 298 289 274 256 251 246 244 240 219 216 216 212 209 208 205 206 206 205 203 204 200 201 203 201 200 200 193 187 182 187 195 189 190 186 189 189 191 196 194 194 191 189 194 189 180 176 173 172 166 164 159 154 154 154 154 153 153 153 150 141 142 144 146 147 147 146 147 147 143 144 142 140 139 139 136 136 138 137 134 128 124
318 316 312 307 303 297 284 270 257 247 247 256 252 238 220 210 205 200 200 201 205 197 199 204 199 200 200 200 200 196 193 186 184 184 183 187 185 185 189 190 190 196 196 188 184 191 194 188 180 174 172 172 171 165 156 158 157 158 159 156 155 152 149 144 146 148 149 148 144 146 148 148 147 145 142 141 142 139 140 141 140 139 135 131 131
313 312 310 307 305 302 294 278 261 254 240 238 237 237 225 215 207 201 198 194 198 196 194 200 203 197 193 198 193 192 188 184 185 184 182 180 179 182 185 187 192 192 192 187 187 190 194 186 177 171 168 168 165 161 158 159 159 159 158 158 158 154 151 151 150 149 147 145 148 149 149 149 148 146 145 144 140 142 144 143 142 139 132 130 131
309 308 307 305 303 303 299 289 274 256 242 237 236 237 232 211 203 194 191 192 193 198 194 196 202 200 189 192 190 190 182 181 183 183 180 176 176 178 182 181 176 188 188 187 189 192 195 178 175 169 167 166 163 161 160 160 159 162 159 158 158 155 155 152 150 149 147 149 150 149 149 149 148 147 145 144 142 146 144 143 142 138 133 134 134
303 304 306 305 304 300 297 294 286 271 252 240 235 231 223 218 195 186 192 192 196 191 192 198 198 194 194 186 188 190 181 180 180 182 176 174 175 180 170 176 178 183 186 190 189 198 194 185 174 173 168 169 161 159 159 162 164 162 162 159 156 156 155 154 152 153 152 152 151 150 151 151 150 148 146 145 147 146 145 144 142 136 136 137 134
296 300 303 302 302 299 296 295 294 283 263 245 239 231 220 220 198 189 190 196 195 192 191 197 189 193 190 188 187 184 184 181 174 174 176 169 164 170 168 178 182 179 179 183 189 189 192 187 177 174 168 168 163 162 161 163 163 161 161 160 157 157 156 155 155 154 153 152 150 151 152 151 150 148 148 148 149 147 145 145 141 136 138 137 136
290 295 295 298 298 298 296 297 296 293 272 252 238 232 230 218 201 187 183 196 191 194 195 192 190 188 189 187 186 182 181 177 171 168 166 158 163 174 175 177 177 179 170 178 185 188 192 189 182 180 171 167 161 160 162 165 164 162 162 161 159 156 156 156 156 155 152 152 152 153 153 152 151 150 150 150 148 147 146 140 140 141 141 139 137
285 287 289 292 297 296 298 299 304 302 291 260 236 230 220 218 212 193 187 186 190 190 193 189 186 184 179 183 174 175 176 174 172 166 157 163 164 174 172 175 161 170 171 171 181 186 189 189 180 174 174 167 161 163 165 167 164 163 161 160 159 157 156 157 157 156 152 152 153 153 153 152 151 152 151 151 150 149 146 143 144 144 142 140 140
279 282 281 284 289 294 300 302 301 300 297 281 248 226 221 211 207 201 191 184 188 187 186 185 180 176 176 174 171 167 170 166 158 148 156 162 164 172 171 160 156 162 169 169 175 175 183 192 190 170 164 161 162 165 169 166 164 163 161 160 159 156 157 158 156 154 153 153 153 153 152 152 154 154 153 153 152 149 146 147 147 146 143 143 142
276 279 277 280 284 291 297 298 297 296 294 292 264 235 223 212 202 200 196 190 187 183 179 177 177 175 178 174 169 163 150 152 158 159 155 155 160 160 153 161 157 156 155 166 167 158 166 168 150 159 158 157 158 163 164 168 163 159 160 160 159 158 158 158 156 154 154 152 153 155 155 155 155 155 155 155 153 151 150 149 148 147 145 144 142
275 274 267 270 278 287 296 299 296 294 295 294 282 249 219 208 207 194 189 195 187 178 173 166 165 168 157 119 105 129 147 151 159 161 160 156 154 156 157 155 156 150 152 156 161 160 154 162 154 151 150 157 157 157 161 160 165 159 160 159 159 159 159 157 156 155 154 155 157 158 159 158 157 157 157 155 154 153 151 150 149 149 148 145 144
273 269 261 259 263 280 292 295 296 295 295 294 296 271 231 215 208 191 181 173 178 177 170 153 139 95 96 106 79 59 93 137 150 159 160 157 151 156 149 142 146 150 150 147 160 160 152 154 157 146 152 157 168 160 160 162 160 163 161 161 160 159 160 157 154 154 155 158 160 160 159 158 158 158 157 157 156 154 153 153 152 149 147 147 146
269 262 256 250 263 277 284 290 297 299 297 296 292 290 267 223 199 196 194 179 178 172 164 149 164 155 147 124 82 62 28 64 120 153 158 163 161 152 152 150 151 144 147 135 167 147 155 149 158 152 149 145 155 157 154 158 162 165 164 160 160 161 160 158 156 157 159 161 161 160 159 158 159 159 158 157 156 156 156 155 152 152 153 152 151
266 259 256 252 252 264 275 283 292 298 300 298 299 291 283 247 226 193 186 205 179 174 167 172 162 151 128 119 142 127 22 15 358 90 190 166 168 170 158 154 149 145 145 133 151 132 146 149 150 146 148 146 148 150 154 158 163 163 160 160 160 161 162 161 160 159 161 161 160 160 159 160 161 160 159 158 158 158 157 156 155 154 154 155 154
264 264 260 253 246 254 269 277 284 291 293 296 293 289 284 274 238 206 177 178 194 181 183 179 160 146 160 173 165 153 143 205 171 242 339 191 167 175 167 158 151 144 142 142 141 138 144 151 149 147 149 146 145 153 161 160 159 159 162 162 160 163 163 163 162 160 160 161 160 161 161 162 162 160 160 160 160 159 159 158 159 159 158 158 158
266 266 258 252 244 246 254 267 276 280 291 291 292 290 288 281 242 215 194 172 173 178 186 187 176 180 152 117 98 161 194 172 152 26 355 150 203 174 171 157 157 153 153 150 144 158 146 148 148 151 150 144 145 153 157 155 155 160 163 159 155 161 164 164 163 161 163 163 163 163 162 163 162 161 162 162 162 162 161 162 162 159 157 157 158
270 266 256 248 244 239 250 263 270 274 283 291 291 290 289 281 261 237 208 189 168 172 175 193 187 185 186 169 154 173 166 142 152 172 346 326 190 233 174 167 170 159 156 152 153 157 159 152 153 151 150 146 149 152 153 155 156 158 157 157 156 161 162 165 164 163 164 165 164 163 163 163 164 163 163 164 164 163 163 164 163 160 159 158 159
274 266 262 249 240 236 246 254 261 274 269 289 293 292 289 282 283 249 216 188 187 175 177 179 178 195 188 185 74 87 146 152 173 139 150 174 347 171 191 172 171 169 160 161 157 155 160 155 156 156 156 148 153 154 153 157 160 159 157 157 157 160 164 167 166 165 167 166 165 164 164 164 165 165 166 166 165 166 167 165 164 163 163 163 163
284 273 263 252 240 238 241 249 259 270 276 284 293 292 286 284 275 268 242 200 176 186 182 180 176 186 189 180 89 128 168 193 171 164 165 160 179 329 339 225 171 177 170 162 160 160 159 162 159 158 152 149 151 155 155 155 156 158 160 159 155 161 165 167 164 167 169 167 165 166 164 166 166 167 168 168 167 169 168 167 167 167 167 168 168
299 286 276 267 250 231 235 246 247 261 275 283 296 295 288 283 272 278 277 243 197 178 179 185 187 180 177 175 120 140 164 178 184 209 153 153 169 168 173 163 169 179 173 170 166 163 161 161 163 159 157 155 157 158 156 156 158 161 164 161 157 159 164 165 166 168 169 167 167 168 169 168 169 169 169 169 171 171 169 169 170 168 170 173 173
303 302 288 269 250 225 228 241 245 253 261 274 291 299 299 289 284 274 278 264 224 200 189 189 190 183 182 169 159 147 150 162 182 183 207 172 160 179 169 164 172 183 171 171 170 170 163 159 157 160 162 158 160 157 160 158 158 161 165 161 160 160 165 167 169 170 170 168 168 168 167 169 169 169 169 170 172 173 172 172 170 170 171 172 171
302 301 296 276 247 224 221 232 237 243 254 265 274 292 296 299 292 286 280 280 263 210 209 201 191 187 182 178 172 166 166 180 181 181 169 171 153 161 168 177 168 153 183 170 167 171 167 158 159 164 163 161 162 160 161 163 160 163 164 163 162 160 165 169 170 170 168 169 170 172 172 169 169 169 173 174 174 175 174 172 171 172 170 167 163
301 306 306 303 281 251 220 225 235 230 244 255 267 273 288 296 293 281 280 279 281 254 204 200 204 195 185 184 184 180 178 177 176 171 173 176 164 165 162 142 90 59 56 147 166 165 170 166 167 164 163 162 166 162 161 159 163 161 163 165 163 162 164 170 170 168 170 173 173 172 174 173 173 174 176 178 177 177 175 173 174 171 168 165 162
306 304 304 302 300 277 239 224 235 231 236 249 262 271 278 287 286 281 267 264 268 271 233 198 195 199 193 190 183 184 183 181 171 172 174 161 159 155 169 163 160 146 128 136 158 194 177 170 171 170 161 165 166 163 162 162 162 164 163 167 165 164 164 168 168 169 171 173 172 174 174 174 175 174 172 177 178 178 176 172 172 170 167 167 166
301 299 299 301 300 289 264 243 233 233 230 242 258 266 272 276 279 274 272 264 260 268 253 210 192 204 201 186 185 184 180 167 168 168 159 156 162 162 153 141 140 148 134 145 160 135 299 190 169 167 162 163 165 163 161 161 159 164 162 163 166 164 163 167 169 170 172 173 172 173 170 169 170 167 174 181 177 174 171 168 170 170 167 168 163
297 296 296 296 298 297 277 238 235 230 226 237 249 262 268 276 277 279 270 258 260 257 259 225 193 193 200 194 186 183 176 171 170 173 171 169 162 159 148 135 90 99 148 124 157 181 158 55 135 157 165 161 162 163 160 161 161 162 159 160 166 164 163 169 169 169 169 170 170 170 171 172 176 176 176 176 173 168 168 170 170 169 169 167 167
294 294 295 296 298 299 292 264 249 236 226 225 243 256 268 273 282 282 279 272 264 263 265 241 204 192 192 193 190 186 174 172 173 172 173 168 160 160 164 157 153 160 152 149 166 172 156 150 359 186 171 164 167 160 162 156 159 162 158 160 161 164 164 169 169 169 170 167 165 166 169 174 180 185 177 182 179 170 170 170 169 167 172 168 163
290 292 296 293 294 299 297 279 252 242 229 218 227 246 255 264 272 284 284 278 265 266 264 259 221 190 195 187 185 187 177 173 172 169 168 166 167 170 171 167 167 161 166 170 192 161 196 183 159 208 198 172 154 157 157 165 163 161 160 157 160 163 167 169 171 170 169 170 164 169 170 175 178 185 187 185 173 168 161 166 173 165 169 169 161
288 287 289 296 300 302 298 287 266 248 232 223 220 238 248 253 259 270 279 280 272 266 258 260 238 201 188 188 181 180 179 175 172 172 170 170 170 175 178 176 168 166 170 173 182 179 164 225 184 142 189 171 147 145 151 157 161 161 156 157 159 159 165 167 176 172 172 172 170 170 177 180 179 182 186 178 172 171 168 168 169 163 165 165 162
287 286 293 298 300 300 297 291 278 258 244 230 218 232 242 253 253 267 278 280 276 264 258 254 242 209 189 183 181 179 176 181 174 172 172 170 172 175 178 174 181 173 168 169 160 235 171 174 194 165 147 160 147 135 133 144 163 160 155 158 161 162 165 170 176 176 172 176 179 175 174 179 182 182 183 179 174 170 174 167 161 160 160 161 158
287 289 295 297 299 296 295 294 288 277 265 249 221 226 243 247 251 262 274 283 280 272 262 256 248 214 188 182 180 177 175 177 174 173 172 174 171 172 175 178 183 179 168 163 170 170 183 171 149 149 157 143 151 143 137 137 160 159 154 158 163 163 168 172 175 172 177 181 181 179 175 176 183 185 185 182 175 168 171 165 158 157 157 156 155
296 296 295 295 295 298 303 305 300 285 269 264 244 229 241 253 251 258 279 282 282 279 269 263 255 224 192 181 181 178 172 174 178 173 172 170 168 171 173 176 173 169 170 167 161 134 69 64 133 153 163 140 140 149 140 145 148 141 139 158 156 156 162 167 176 180 180 182 182 182 181 179 182 185 185 181 172 167 166 164 158 155 154 154 153
291 291 292 291 290 294 297 296 296 287 270 258 253 234 244 258 264 255 276 283 286 285 278 264 253 231 197 184 180 175 174 177 173 175 171 170 169 168 173 172 170 172 175 158 156 153 146 98 86 128 146 161 139 168 155 154 156 141 142 126 155 161 162 166 171 184 184 182 183 183 183 183 183 184 182 176 166 163 164 161 155 152 150 148 144
286 286 289 288 291 294 294 294 294 287 272 258 255 244 244 253 266 273 267 278 281 282 280 270 254 234 205 185 179 174 175 176 174 175 170 171 169 170 172 171 168 166 163 158 150 155 147 140 147 157 158 165 159 168 161 153 150 150 145 154 158 158 154 166 170 178 185 184 184 184 184 184 184 181 179 171 162 162 162 158 155 153 151 150 149
287 289 288 290 290 291 292 291 290 286 275 258 255 244 241 244 258 269 278 276 276 277 276 276 261 233 206 186 177 174 174 176 175 174 174 171 170 171 168 169 165 163 161 158 160 152 152 137 174 168 163 151 98 109 119 128 143 153 158 142 135 152 153 165 169 170 183 183 184 185 184 182 180 177 175 167 162 162 160 157 155 155 154 154 154
290 291 288 285 281 285 289 295 298 298 286 265 261 256 242 239 243 259 272 278 279 278 278 278 273 238 210 190 176 174 174 174 174 174 175 174 173 167 166 165 164 163 159 154 152 149 152 151 146 131 143 103 98 132 142 141 128 100 102 136 154 154 144 146 156 171 176 181 182 184 183 180 176 173 170 165 163 162 160 157 155 154 154 155 156
282 277 279 285 285 287 288 294 297 298 300 289 265 258 249 239 237 247 263 272 279 283 281 280 278 249 208 194 178 175 176 175 176 178 176 177 172 170 165 161 161 158 155 153 147 152 156 152 145 137 157 142 133 157 164 149 145 133 109 95 91 123 139 126 141 157 159 164 166 177 181 179 175 171 167 164 163 162 160 158 156 154 155 157 159
295 297 299 299 296 291 289 290 290 292 290 290 286 267 252 237 238 249 261 272 279 285 283 278 276 266 222 193 180 177 179 179 176 175 176 175 173 173 169 162 159 158 154 154 152 150 151 149 154 152 152 156 152 156 173 157 158 155 148 133 128 129 142 153 140 125 134 136 158 170 172 172 172 169 167 164 164 163 161 159 157 156 157 160 162
294 292 290 287 286 286 285 282 281 282 282 280 278 273 257 242 244 247 254 268 278 284 287 280 277 271 239 201 180 182 182 180 176 175 173 175 172 170 168 159 157 156 154 150 148 148 148 153 156 157 152 147 117 100 111 131 138 159 187 165 160 153 158 177 173 151 149 142 141 136 148 159 167 167 166 165 164 163 162 160 159 158 160 163 164
288 286 285 284 282 279 273 272 276 275 277 277 276 271 266 261 249 250 258 262 269 281 286 286 283 277 250 208 187 185 183 180 177 174 176 172 166 167 166 162 160 157 153 153 152 151 152 152 154 153 151 151 155 152 163 175 183 175 162 123 150 157 158 153 149 137 154 149 135 132 151 158 153 162 162 164 170 164 164 162 163 162 163 165 166
290 288 286 283 279 277 279 275 268 270 271 273 274 274 271 264 256 256 257 260 264 269 276 283 283 276 253 216 192 184 182 178 175 176 175 171 169 166 166 165 160 157 156 154 156 157 155 157 159 162 160 170 169 173 174 176 147 122 147 157 151 137 113 99 87 139 179 138 138 148 169 175 154 151 158 167 175 166 165 164 170 167 167 166 167
291 290 287 286 284 282 279 275 271 265 266 269 272 274 274 269 262 254 253 259 258 261 268 274 279 279 256 219 196 183 178 176 176 178 176 175 172 168 167 168 166 161 157 156 159 161 161 163 165 166 169 169 175 168 165 156 160 166 170 160 144 146 158 157 168 64 296 159 150 153 171 194 157 161 175 172 170 172 172 173 169 165 167 168 170
289 286 283 280 279 277 274 270 265 261 261 265 268 269 268 268 266 254 248 254 256 258 265 269 274 278 260 224 196 178 178 179 176 178 178 177 174 172 170 169 169 166 162 161 159 162 164 159 165 174 167 171 167 166 161 159 166 167 164 160 165 166 167 170 165 175 183 173 159 167 172 176 175 165 172 186 180 177 176 170 169 169 170 170 172
289 286 284 281 278 277 271 268 264 259 255 261 264 265 265 264 264 260 251 248 249 255 259 265 270 273 269 228 196 175 180 180 174 175 175 175 175 173 171 168 169 170 168 163 162 164 165 161 167 169 172 163 162 174 171 169 161 160 161 168 172 174 175 172 176 160 165 178 155 161 172 188 176 179 184 184 175 165 163 170 172 171 172 172 173
280 281 279 276 274 272 272 268 267 265 259 263 266 268 268 263 259 255 245 244 245 248 255 260 266 267 266 238 198 178 178 177 175 173 172 170 170 169 169 168 169 172 167 164 164 155 155 160 163 170 175 163 171 172 171 157 158 169 170 178 169 169 182 189 175 168 160 166 173 162 170 186 190 173 187 178 163 161 173 177 174 174 175 174 174
277 276 274 272 268 266 271 271 259 249 250 257 262 262 264 262 256 249 237 242 243 246 252 255 260 259 260 242 201 181 173 176 179 174 169 168 165 166 171 175 172 172 170 168 165 164 168 166 168 168 166 181 170 162 162 172 173 174 176 173 173 176 151 70 49 75 156 184 166 157 181 171 167 180 186 160 167 168 173 186 178 178 178 176 178
271 270 270 267 262 257 261 265 268 270 267 263 263 261 258 259 256 240 237 238 245 246 250 255 255 255 256 243 211 181 172 178 179 173 168 163 165 167 173 175 173 175 178 179 173 172 170 168 169 164 169 175 172 167 170 173 159 122 94 80 88 113 139 155 153 144 165 192 189 173 159 178 176 182 174 133 136 168 182 196 192 181 180 180 180
268 268 268 264 267 267 270 268 260 257 255 257 260 258 255 253 253 244 240 241 245 246 248 254 256 255 251 240 214 186 174 177 176 173 167 161 166 170 172 173 174 174 179 178 180 175 171 169 169 171 173 173 171 171 169 161 158 147 133 137 157 152 147 151 150 156 179 179 211 191 138 158 176 172 128 156 173 175 180 195 205 191 187 184 184
267 265 263 264 262 260 261 265 261 252 252 253 257 255 251 249 243 243 240 244 244 244 251 250 254 252 247 235 211 189 175 176 175 172 168 166 169 171 169 168 170 176 177 172 168 181 175 169 169 169 170 171 168 166 167 169 162 155 157 171 168 159 171 170 167 174 156 184 195 148 126 160 143 127 113 75 76 26 188 197 190 198 193 190 189
260 261 258 260 261 259 256 258 263 263 258 257 257 256 253 247 242 233 236 235 243 241 242 250 249 246 241 229 208 190 178 171 174 173 170 170 172 172 170 168 173 178 180 168 167 161 158 142 141 136 149 157 156 161 171 170 168 172 175 165 157 169 173 173 155 134 148 214 197 164 152 152 156 180 148 123 188 258 214 185 188 195 195 190 192